World > North America > United States > Texas

D Hanis, Texas Regional Weather

Lat: 29.39N, Lon: 99.11W
Wx Zone: TXZ204Web Search
D Hanis Weather Warning NWS WEATHER ALERT FOR THE D HANIS, TX AREA - Issued: 1126 AM CDT Mon Jun 21 2021 D Hanis Weather Warning  

Pass this page to a friend. Tell them to point their camera at the QR Code near the bottom of this page.

Feedback


°F Click to change D Hanis hourly weather to Imperial units.Click to change D Hanis hourly weather to Metric units. °C
D Hanis Weather Map
UTC Time: 6/21/2021, 20:16
Your Time:

D Hanis, TX Regional Weather

Expires:202106212100;;636672
ASUS44 KSJT 212015
RWRSJT
WEST CENTRAL TEXAS REGIONAL WEATHER ROUNDUP
NATIONAL WEATHER SERVICE SAN ANGELO TX
300 PM CDT MON JUN 21 2021

NOTE: "FAIR" INDICATES FEW OR NO CLOUDS BELOW 12,000 FEET WITH NO
SIGNIFICANT WEATHER AND/OR OBSTRUCTIONS TO VISIBILITY.


TXZ171-183-184-186-188-203-204-212100-
TEXAS HILL COUNTRY AND EDWARDS PLATEAU
  
CITY           SKY/WX    TMP DP  RH WIND       PRES   REMARKS
LLANO          CLEAR     95  72  46 E8G16     29.81F                  
HORSESHOE BAY  MOCLDY    95  69  43 CALM      29.84F                  
KERRVILLE      PTSUNNY   89  75  63 S5        29.87F                  
FREDERICKSBRG  PTSUNNY   89  67  49 CALM      29.87F                  
ROCKSPRINGS      N/A     88  72  58 MISG      29.94F                  
HONDO          PTSUNNY   89  77  67 SE9       29.83S                  
UVALDE         CLOUDY    85  80  83 E10       29.84R                  
DEL RIO        PTSUNNY   95  74  50 E10G21    29.80R                  
$$


SKY/WX - Weather  TMP - Temperature  DP - Dew Point  RH - Relative Humidity
WIND - Wind Direction/Speed PRES - Barometric Pressure VSB - Visibility
WCI - Wind Chill Index E13G22 Wind - East Wind 13 mph/Gusts of 22 mph